Springfield, VT

4:04 PM EDT on March 23, 2017 (GMT -0400)
Hartness State

Weather History for KVSF - May, 2014

Change the Weather History Date:

Friday, May 2, 2014

  Actual Average Record
Temperature  
Mean Temperature 48 °F 51 °F  
Max Temperature 60 °F 63 °F 89 °F (2001)
Min Temperature 36 °F 38 °F 27 °F (2005)
Degree Days  
Heating Degree Days 17 14  
Month to date heating degree days 28 14  
Since 1 July heating degree days 7656 7120  
Cooling Degree Days 0 0  
Month to date cooling degree days 0 0  
Year to date cooling degree days 0 2  
Moisture  
Dew Point 38 °F    
Average Humidity 70    
Maximum Humidity 100    
Minimum Humidity 40    
Precipitation  
Precipitation 0.01 in 0.10 in 0.67 in (2002)
Month to date precipitation 0.20 0.10  
Year to date precipitation 9.61 12.63  
Sea Level Pressure  
Sea Level Pressure 29.73 in    
Wind  
Wind Speed 6 mph (West)    
Max Wind Speed 22 mph    
Max Gust Speed 30 mph    
Visibility 8 miles    
Events Fog , Rain    
T = Trace of Precipitation, MM = Missing Value Source: NWS Daily Summary

Daily Weather History Graph

Daily Weather History Graph

Search for Another Location

Airport or City:

Trip Planner

Search our weather history database for the weather conditions in past years. The results will help you decide how hot, cold, wet, or windy it might be!

Date:

Astronomy

May. 02, 2014 Rise Set
Actual Time 5:41 AM EDT 7:53 PM EDT
Civil Twilight 5:10 AM EDT 8:24 PM EDT
Nautical Twilight 4:31 AM EDT 9:03 PM EDT
Astronomical Twilight 3:49 AM EDT 9:46 PM EDT
Moon 8:14 AM EDT (5/2) 11:14 PM EDT (5/2)
Length of Visible Light 15h 13m
Length of Day
14h 11m
Waxing Crescent, 12% of the Moon is Illuminated
May 2
Waxing Crescent
May 6
First Quarter
May 14
Full
May 21
Last Quarter
May 28
New

Hourly Weather History & Observations

Time (EDT) Temp. Dew Point Humidity Pressure Visibility Wind Dir Wind Speed Gust Speed Precip Events Conditions
12:54 AM 52.0 °F 35.1 °F 53% 29.75 in 10.0 mi West 6.9 mph - N/A   Partly Cloudy
1:54 AM 51.1 °F 36.0 °F 56% 29.74 in 10.0 mi WNW 6.9 mph - N/A   Partly Cloudy
2:54 AM 45.0 °F 37.9 °F 76% 29.75 in 10.0 mi Calm Calm - N/A   Mostly Cloudy
3:54 AM 42.1 °F 39.0 °F 89% 29.73 in 10.0 mi Calm Calm - N/A   Scattered Clouds
4:54 AM 39.0 °F 37.9 °F 96% 29.73 in 10.0 mi Calm Calm - N/A   Clear
5:54 AM 37.0 °F 36.0 °F 96% 29.72 in 9.0 mi Calm Calm - N/A   Clear
6:14 AM 37.0 °F 36.0 °F 96% 29.70 in 10.0 mi Calm Calm - N/A   Scattered Clouds
6:22 AM 36.0 °F 36.0 °F 100% 29.71 in 7.0 mi Calm Calm - N/A   Mostly Cloudy
6:26 AM 36.0 °F 35.1 °F 97% 29.71 in 0.8 mi Calm Calm - N/A   Mist
6:35 AM 37.0 °F 37.0 °F 100% 29.71 in 0.2 mi Calm Calm - N/A Fog Fog
6:54 AM 37.9 °F 37.9 °F 100% 29.71 in 0.2 mi Calm Calm - N/A Fog Fog
7:24 AM 39.9 °F 39.9 °F 100% 29.71 in 1.0 mi Calm Calm - N/A   Mist
7:27 AM 39.9 °F 39.9 °F 100% 29.70 in 4.0 mi Calm Calm - N/A   Mostly Cloudy
7:37 AM 41.0 °F 39.9 °F 96% 29.70 in 10.0 mi Calm Calm - N/A   Partly Cloudy
8:54 AM 53.1 °F 39.0 °F 59% 29.69 in 10.0 mi SSE 5.8 mph - N/A   Clear
9:54 AM 57.0 °F 37.0 °F 47% 29.69 in 10.0 mi West 5.8 mph 18.4 mph N/A   Scattered Clouds
10:54 AM 59.0 °F 36.0 °F 42% 29.69 in 10.0 mi WSW 12.7 mph - N/A   Overcast
11:54 AM 55.0 °F 36.0 °F 49% 29.71 in 10.0 mi WSW 17.3 mph 24.2 mph N/A   Overcast
12:54 PM 50.0 °F 41.0 °F 71% 29.74 in 6.0 mi WSW 10.4 mph 20.7 mph 0.00 in Rain Light Rain
1:54 PM 57.0 °F 37.9 °F 49% 29.70 in 10.0 mi WSW 11.5 mph 20.7 mph 0.00 in   Mostly Cloudy
2:54 PM 59.0 °F 37.0 °F 44% 29.70 in 10.0 mi West 16.1 mph 25.3 mph N/A   Overcast
3:54 PM 53.1 °F 44.1 °F 71% 29.70 in 7.0 mi WNW 5.8 mph - 0.01 in Rain Light Rain
4:54 PM 59.0 °F 36.0 °F 42% 29.70 in 10.0 mi West 16.1 mph - 0.00 in   Mostly Cloudy
5:54 PM 60.1 °F 37.0 °F 42% 29.70 in 10.0 mi NNW 8.1 mph - N/A   Mostly Cloudy
6:54 PM 57.0 °F 37.9 °F 49% 29.74 in 10.0 mi WNW 6.9 mph - N/A   Mostly Cloudy
7:54 PM 55.0 °F 36.0 °F 49% 29.76 in 10.0 mi West 5.8 mph - N/A   Scattered Clouds
8:54 PM 51.1 °F 36.0 °F 56% 29.79 in 10.0 mi West 5.8 mph - N/A   Clear
9:54 PM 48.0 °F 36.0 °F 63% 29.81 in 10.0 mi Calm Calm - N/A   Mostly Cloudy
10:54 PM 43.0 °F 37.9 °F 82% 29.82 in 10.0 mi Calm Calm - N/A   Overcast
11:54 PM 42.1 °F 37.9 °F 85% 29.82 in 10.0 mi Calm Calm - N/A   Overcast